NOAA 16 DEB

Satellite information

Favourite Embed

Satellite Type and Status

DEBRISIN ORBIT

Key statistics

Satellite NOAA 16 DEB at a glance.

Uptime

9159

Days in orbit

Revolutions

≈ 14.7

Per day

Orbit

SSO

Sun Synchronous Orbit

Inclination

98.9

Latest

Satellite identification and parameters

Extended collection of information and parameters for NOAA 16 DEB.

Object identification

Identified? True

Debris? True

Object name: NOAA 16 DEB

International designator: 2000-055LF

Object number (NORAD): 41426

Object ID (CCSDS): 41426

Country: UNITED STATES OF AMERICA (US)

Current information (Y/N): Y

RCS size: SMALL

Orbital parameters

Period: 97.656 minutes

Inclination: 98.8949 deg

SMA: 7024.689 km

Apoapsis: 649.639 km

Periapsis: 643.47 km

RAAN: 83.4968 deg

Eccentricy: 0.00043908

Argument of periapsis: 82.4947 deg

Mean anomaly: 277.6758 deg

Mean motion: 14.74558792 rev/day

Mean motion (dot): 0.0010797 rev/day2

B* drag term: 0.015966118 1/REarth

Two-line elements (TLE)

Creation date: Oct. 19, 2025, 2:20 a.m.

Reference frame: TEME

Reference center: EARTH

Epoch: Oct. 18, 2025, 9:17 p.m. UTC

TLE line 0: 0 NOAA 16 DEB

TLE line 1: 1 41426U 00055LF 25291.88724834 .00107970 00000-0 15966-1 0 9992

TLE line 2: 2 41426 98.8949 83.4968 0004391 82.4947 277.6758 14.74558792501757

Live tracking on map

Real-time ground track for satellite NOAA 16 DEB.

In-orbit conjunctions

A list of the most updated potential collisions computed for object NOAA 16 DEB.

Target Orbit TCA Probability of collision Miss distance Type
MUBLCOM SSO 2025-04-20 14:05:08 0.0001405031 505.0 (m) PAYLOAD
PSLV R/B SSO 2024-12-18 15:45:47 0.0001008034 170.0 (m) ROCKET BODY

Associated space launch

The NOAA K, L and M POES satellites begin the fifth generation of improved environmental monitoring in support of NOAA missions. The instrument payload has significant improvements and additions/deletions. The instrument changes have effected the spacecraft subsystems and data formats.

NOAA 16 DEB was lifted into orbit during the mission ‘Titan II SLV | NOAA 16’, on board a Titan II SLV space rocket.

The launch took place on Sept. 21, 2000, 10:22 a.m. from Space Launch Complex 4W.

For more information about the launch, click the button.

Launch to space Titan II SLV | NOAA 16
Titan II SLV | NOAA 16

Agency: N/A

Status: Launch Successful

Launch date: Sept. 21, 2000, 10:22 a.m. UTC

Rocket: Titan II SLV

Launch pad: Space Launch Complex 4W

Location: Vandenberg SFB, CA, USA

...

Latest news about this satellite

There are no fresh news available about this satellite. Check back as we update our databases every day.


Newsletter sign-up

Weekly statistics, charts and insights to help you stay on top of the space industry.